Regional Weather Roundup
Issued by NWS

Home | Current Version | Previous Version | Text Only | Print | Product List | Glossary On
Versions: 1 2 3 4 5 6 7 8 9 10 11 12 13 14 15 16 17 18 19 20 21 22 23 24 25 26 27 28 29 30 31 32 33 34 35 36 37 38 39 40 41 42 43 44 45 46 47 48 49 50
000
ASUS44 KFWD 151715
RWRTX
NORTH TEXAS HOURLY WEATHER ROUNDUP
NATIONAL WEATHER SERVICE FORT WORTH TX
1100 AM CST FRI DEC 15 2017

NOTE: "FAIR" INDICATES FEW OR NO CLOUDS BELOW 12,000 FEET WITH NO
SIGNIFICANT WEATHER AND/OR OBSTRUCTIONS TO VISIBILITY.

TXZ118-119-151800-
DALLAS/FORT WORTH METROPLEX

CITY           SKY/WX    TMP DP  RH WIND       PRES   REMARKS
DFW AIRPORT    MOSUNNY   50  30  46 N9        30.32F
DALLAS LOVE    MOSUNNY   50  32  50 N8        30.33S
FTW MEACHAM    SUNNY     49  30  48 NW7       30.33F
DAL-EXECUTIVE  SUNNY     49  31  49 N13       30.30F
FTW-ALLIANCE   MOSUNNY   48  29  47 N8        30.31F
FTW-NAS-JRB    MOSUNNY   49  28  44 N9        30.34F
FTW-SPINKS     SUNNY     48  30  49 NW10      30.34F
ARLINGTON      SUNNY     49  30  48 NW13      30.32F
GRAND PRAIRIE  SUNNY     48  28  46 N8        30.34F
ADDISON        SUNNY     48  32  53 N9        30.34S
MESQUITE       SUNNY     48  30  49 N9        30.33S
LANCASTER      SUNNY     49  30  48 N12       30.33F
$$

TXZ091>094-102>105-117-120-121-131>134-151800-
NORTH CENTRAL TEXAS

CITY           SKY/WX    TMP DP  RH WIND       PRES   REMARKS
SHRMAN/DENISON SUNNY     47  31  53 N7        30.33F
GAINESVILLE    SUNNY     46  28  48 N8        30.34F
BOWIE          SUNNY     44  28  54 N5        30.33F
BRIDGEPORT     SUNNY     46  29  52 NW7       30.35F
DECATUR        SUNNY     46  28  48 N7        30.31F
DENTON         SUNNY     48  31  51 N10       30.31F
MCKINNEY       SUNNY     48  33  56 N8        30.32F
BONHAM         SUNNY     44  33  64 NW7       30.32F
GREENVILLE     SUNNY     52  34  50 N8        30.32S
ROCKWALL       SUNNY     47  32  57 N7        30.32F
TERRELL        SUNNY     50  31  48 N8        30.32F
WAXAHACHIE     SUNNY     49  32  50 N12G17    30.33F
CLEBURNE       SUNNY     50  27  40 NE14      30.34F
GRANBURY       SUNNY     50  30  46 NW6       30.36S
$$

TXZ083>090-098>101-113>116-127>130-139>142-154-155-151800-
WESTERN NORTH TEXAS

CITY           SKY/WX    TMP DP  RH WIND       PRES   REMARKS
WICHITA FALLS  MOSUNNY   47  26  44 VRB3      30.33F
WF-KICKAPOO    SUNNY     45  27  50 CALM      30.36F
VERNON         SUNNY     45  23  41 CALM      30.33F
ABILENE        SUNNY     43  27  53 NW3       30.36R
ABILENE-DYESS  SUNNY     44  27  50 CALM      30.36R
GRAHAM           N/A     46  28  48 N5        30.33F
BRECKENRIDGE   SUNNY     48  27  43 E5        30.35S
CISCO          SUNNY     45  27  49 CALM      30.35S
EASTLAND       SUNNY     44  27  50 CALM      30.35R
RANGER         SUNNY     46  28  49 CALM      30.35R
MINERAL WELLS  SUNNY     48  27  44 N7        30.32F
STEPHENVILLE   SUNNY     48  28  44 N9        30.37R
COMANCHE       SUNNY     47  29  50 N6        30.36R
BROWNWOOD      SUNNY     48  25  40 N6        30.37R
COLEMAN          N/A     48  27  44 MISG      30.37R
$$

TXZ143>147-156>162-174-175-151800-
CENTRAL TEXAS

CITY           SKY/WX    TMP DP  RH WIND       PRES   REMARKS
WACO           MOSUNNY   51  28  41 N12       30.34F
WACO-TSTC      SUNNY     50  30  46 N14       30.34R
WACO-MCGREGOR  PTSUNNY   50  30  46 N14       30.35R
HILLSBORO      SUNNY     51  29  42 N12       30.32F
CORSICANA      MOSUNNY   49  33  54 N13       30.33F
MEXIA          PTSUNNY   46  28  49 NW7       30.32S
HEARNE         MOSUNNY   48  30  50 CALM      30.35R
CAMERON        CLOUDY    49  31  49 N6        30.35R
TEMPLE         SUNNY     50  31  48 N14       30.35R
KILLEEN        MOSUNNY   49  29  46 N8        30.33R
KILLEEN-SKYLRK SUNNY     50  30  46 N10       30.35R
FORT HOOD      MOSUNNY   50  30  46 N14       30.31R
GATESVILLE     MOSUNNY   50  27  40 N8        30.36R
HAMILTON       SUNNY     51  29  42 N12       30.34S
LAMPASAS       SUNNY     50  28  43 N9        30.33S
$$

TXZ095>097-106>112-122>126-135>138-148>153-164>167-151800-
EAST TEXAS

CITY           SKY/WX    TMP DP  RH WIND       PRES   REMARKS
PARIS          SUNNY     46  34  62 N12       30.29F
SULPHUR SPRNGS SUNNY     46  34  62 N7        30.33S
MOUNT PLEASANT SUNNY     46  33  59 W8        30.31F
GILMER         PTSUNNY   44  29  56 W3        30.31S
MINEOLA        MOSUNNY   48  34  57 NW5       30.31S
TYLER          CLOUDY    44  30  57 W7        30.31S
LONGVIEW       CLOUDY    49  32  52 CALM      30.31R
MARSHALL       PTSUNNY   46  28  49 CALM      30.33S
ATHENS         CLOUDY    43  28  56 NW3       30.32S
PALESTINE      CLOUDY    48  31  52 W3        30.33F
JACKSONVILLE   MOSUNNY   46  31  55 CALM      30.32F
HENDERSON      CLOUDY    48  29  47 CALM      30.32F
CENTER         PTSUNNY   45  28  50 NE3       30.34R
NACOGDOCHES    CLOUDY    48  31  51 CALM      30.32F
LUFKIN         CLOUDY    47  31  53 E5        30.32S
$$

SUPPLEMENTAL OBSERVATIONS (NWS FORT WORTH AREA)

CITY           SKY/WX    TMP DP  RH WIND       PRES   REMARKS
DENISON DAM      N/A     45  34  65 NW8         N/A
CADDO GRASSLND   N/A     48  32  53 NW6         N/A
PAT MAYSE LAKE   N/A     43  34  70 NW8         N/A  WCI  38
GREENVILLE       N/A     46  32  57 N12         N/A
CEDAR HILL       N/A     52  32  46 N6G14       N/A
LBJ GRASSLAND    N/A     48  30  49 NW6         N/A
POSSUM KINGDOM   N/A     46  28  49 N5          N/A
GRANBURY         N/A     50  30  46 NW7         N/A
COMANCHE         N/A     48  28  46 N7          N/A
MCGREGOR         N/A     52  28  40 N10         N/A
TEMPLE           N/A     52  32  46 N14         N/A
LAKE LIMESTONE   N/A     52  30  43 NE2         N/A
ATHENS           N/A     48  32  53 NW2         N/A
$$

SUPPLEMENTAL OBSERVATIONS (NWS NORMAN AREA)

CITY           SKY/WX    TMP DP  RH WIND       PRES   REMARKS
GOODLETT         N/A     46  23  40 W3        30.31F
ODELL            N/A     45  26  47 NW5       30.32F
CROWELL          N/A     46  25  44 NW3       30.33F
KNOX CITY        N/A     49  25  38 NW3       30.35F
SEYMOUR          N/A     47  26  45 NE2       30.34F
MILLERS CREEK    N/A     46  28  49 N7          N/A
$$

SUPPLEMENTAL OBSERVATIONS (NWS SAN ANGELO AREA)

CITY           SKY/WX    TMP DP  RH WIND       PRES   REMARKS
WEINERT          N/A     46  26  45 N7        30.35F
HASKELL          N/A     45  25  46 N2        30.35F
THROCKMORTON     N/A     48  27  44 NE7       30.35F
STAMFORD         N/A     45  26  47 N2        30.38R
CLYDE            N/A     44  26  51 W3        30.37R
HAMBY            N/A     46  30  53 W5          N/A
$$

SUPPLEMENTAL OBSERVATIONS (NWS SHREVEPORT AREA)

CITY           SKY/WX    TMP DP  RH WIND       PRES   REMARKS
CLARKSVILLE      N/A     48  32  53 N7          N/A
TEXARKANA        N/A     48  30  49 W6          N/A
LINDEN           N/A     45  30  57 SW3         N/A
CADDO LAKE       N/A     52  30  43 SE2         N/A
GILMER           N/A     46  30  53 W5          N/A
HENDERSON        N/A     50  30  46 N1          N/A
LUFKIN           N/A     50  32  50 MISG        N/A
N SABINE NF      N/A     48  32  53 MISG        N/A
S SABINE NF      N/A     45  32  61 E3          N/A
$$

SUPPLEMENTAL OBSERVATIONS ARE A COLLECTION OF AUTOMATED INSTRUMENTS
THAT ARE MAINTAINED BY A VARIETY OF FEDERAL AND STATE AGENCIES.
CERTAIN ELEMENTS...SUCH AS HUMIDITY VALUES AND SUSTAINED WIND
SPEEDS...MAY BE APPROXIMATED.





USA.gov is the U.S. government's official web portal to all federal, state and local government web resources and services.